星链-32746 (STARLINK-32746)

导读

STARLINK-32746是美国太空探索技术公司SpaceX星链星座的成员卫星,于2025年1月21日由猎鹰9号火箭从佛罗里达肯尼迪航天中心发射入轨。它属于第二代星链卫星,运行在近地轨道,配备先进相控阵天线与激光星间链路,可为全球提供低延迟、高速宽带互联网服务,尤其支持偏远地区接入与应急通信,延续了星链大规模组网、自主避碰的技术特征,进一步完善了星链星座的全球覆盖能力。

基本信息
目录编号:
62745
目录名称:
STARLINK-32746
国际标识:
2025-014L
轨道中心:
EARTH
卫星名称:
星链-32746
卫星全名:
星链-32746 (STARLINK-32746)
卫星状态:
在轨 (已飞行592 天)
发射日期:
2025-01-21 UTC
国别 :
美国 (US)
星等 :
--
轨道信息
数据来源 国际轨道数据
星历时间: 2026-09-04T23:51:23+0800
18小时前
查看轨道信息
半长轴: 6861.172km
偏心率: 0.0001461
轨道倾角: 43.002°
近地点辐角 273.003°
升交点赤经 223.227°
平近点角 87.065°
近地点: 482.032km
远地点: 484.038km
周期: 94.266分钟
每日圈数: 15.275849
详细信息
固有亮度:
5
最大亮度:
2.5
卫星平台:
Starlink V1.0
覆盖范围:
全球
运营商:
太空探索技术公司
运营商所在国:
美国
制造商(研发单位):
太空探索技术公司
制造商所在国:
美国
使用方式:
暂无
卫星简介
Starlink 计划是 SpaceX 推出的全球卫星互联网项目,通过发射低轨道卫星,为全球尤其是偏远地区提供高速、低延迟的互联网服务。自 2019 年起,Starlink 已部署数千颗卫星,旨在缩小全球数字鸿沟,推动互联网普及。该项目还为军事、航空等行业提供通信支持,带来广泛经济效益。
2D轨道图
3D轨道图
轨道高度分析图
轨道倾角分析图
轨道综合分析图
查看轨道综合分析图
交会数据列表
事件ID 空间交会对象 最接近时刻(TCA) 交会距离 交会风险概率(CRP) 交会风险指数(CRI) 操作
CDM_260902-232203-368706-274521
2026-09-02T
23:22:53+0000
2.821 km
极远距离
1.198222E-6 低风险 0.37